Tracking 18840 objects as of 18-November-2017
HD Live streaming from Space Station
objects crossing your sky now

IRIDIUM 17

Track IRIDIUM 17 now!
10-day predictions
IRIDIUM 17 is classified as:


NORAD ID: 24870
Int'l Code: 1997-034B
Perigee: 776.8 km
Apogee: 782.4 km
Inclination: 86.4 °
Period: 100.3 minutes
Semi major axis: 7150 km
RCS: 3.8367 m2 (large)
Launch date: July 9, 1997
Source: United States (US)
Launch site: AIR FORCE WESTERN TEST RANGE (AFWTR)
aabbcc
Your satellite tracking list
Your tracking list is empty




NASA's NSSDC Master Catalog

Two Line Element Set (TLE):
1 24870U 97034B   17321.91214615 +.00000147 +00000-0 +43983-4 0  9990
2 24870 086.3931 315.7557 0003929 082.8055 277.3588 14.35787461066230
Source of the keplerian elements: AFSPC